Location: Bazugues
(43.4465°N, 0.3432°E)
Time: 02:51:40
(UTC+00:00)

ACS3 Solar Sail - Visible Passes

Search period start: 09 March 2026 00:00
Search period end: 19 March 2026 00:00
Orbit: 887 x 973 km, 97.2° (Epoch: 8 March)

Date Brightness Start Highest point End Pass type
(mag) Time Alt. Az. Time Alt. Az. Time Alt. Az.
9 Mar 4.1 02:07:53 10° N 02:08:46 15° N 02:08:46 15° N visible
10 Mar 4.0 02:19:24 10° N 02:20:26 16° N 02:20:26 16° N visible
11 Mar 3.9 02:30:53 10° N 02:32:02 16° N 02:32:02 16° N visible
12 Mar 4.5 00:59:43 10° NNE 00:59:54 11° NNE 00:59:54 11° NNE visible
12 Mar 3.8 02:42:20 10° N 02:43:35 16° NNW 02:43:35 16° NNW visible
13 Mar 4.3 01:10:47 10° NNE 01:11:22 13° NNE 01:11:22 13° NNE visible
13 Mar 3.8 02:53:47 10° N 02:55:03 16° NNW 02:55:03 16° NNW visible
14 Mar 4.2 01:21:49 10° NNE 01:22:47 15° NNE 01:22:47 15° NNE visible
14 Mar 3.8 03:05:14 10° NNW 03:06:27 15° NNW 03:06:27 15° NNW visible
15 Mar 4.0 01:32:50 10° NNE 01:34:07 17° NNE 01:34:07 17° NNE visible
15 Mar 3.8 03:16:41 10° NNW 03:17:47 14° NNW 03:17:47 14° NNW visible
16 Mar 3.9 01:43:51 10° NNE 01:45:23 19° NNE 01:45:23 19° NNE visible
16 Mar 3.8 03:28:13 10° NNW 03:29:02 12° NNW 03:29:02 12° NNW visible
17 Mar 3.7 01:54:49 10° N 01:56:34 21° N 01:56:34 21° N visible
17 Mar 3.9 03:39:56 10° NW 03:40:13 11° NW 03:40:13 11° NW visible
18 Mar 3.6 02:05:45 10° N 02:07:42 22° N 02:07:42 22° N visible
